SCP
0 0 0 0 0 0 0 0 0 0 0 0 0 0 0 0 0 0 0 0 0 0 0 0 0 0 0 0 0 0 0 0 0 0 0 0 0 0 0 0 0 0 0 0 0 0 0
0 0 0 0 0 0 0 0 0 0 0 0 0 0 0 0 0 0 0 0 -0 0 0 0 0 0 0 0 0 0 0 0 0 0 0 0 0 0 0 0 0 0 0 0 0 0 0
0 0 0 0 0 0 0 0 0 0 0 0 0 0 0 0 0 0 -0 -0 -0 0 0 0 0 0 0 0 0 0 0 0 0 0 0 0 0 0 0 0 0 0 0 0 0 0 0
0 0 0 0 0 0 0 0 0 0 0 0 0 0 0 0 -0 -0 -0 -0 -0 -0 0 0 0 0 0 0 0 0 0 0 0 0 0 0 0 0 0 0 0 0 0 0 0 0 0
0 0 0 0 0 0 0 0 0 0 0 0 0 0 0 -0 -0 -0 -0 0 -0 -0 -0 0 0 0 0 -0 0 0 0 0 0 0 0 0 0 0 0 0 0 0 0 0 0 0 0
0 0 0 0 0 0 0 0 0 0 0 -0 0 -0 -0 -0 -0 -0 -0 0 0 0 0 0 0 0 0 -0 0 0 0 0 0 0 0 0 0 0 0 0 0 0 0 0 0 0 0
0 0 0 0 0 0 0 0 0 0 0 0 -0 -0 -0 0 -0 0 0 0 0 0 0 0 0 0 0 0 0 0 0 0 0 0 0 0 0 0 0 0 0 0 0 0 0 0 0
0 0 0 0 0 0 0 0 0 0 0 0 -0 0 0 0 0 -0 0 0 0 -0 0 0 0 0 0 0 0 0 0 0 0 0 0 0 0 0 0 0 0 0 0 0 0 0 0
0 0 0 0 0 0 0 0 0 0 0 -0 -0 0 -0 0 -0 0 0 0 0 -0 0 0 0 0 0 0 0 0 0 0 0 0 0 0 0 0 0 0 0 0 0 0 0 0 0
0 0 0 0 0 0 0 0 0 0 0 -0 0 0 -0 -0 0 0 0 0 -0 0 0 0 0 0 0 0 0 0 0 0 0 0 0 0 0 0 0 0 0 0 0 0 0 0 0
0 0 0 0 0 0 0 0 0 0 0 0 0 0 0 0 0 0 -0 -0 0 0 0 0 0 0 0 0 0 0 0 0 0 0 0 0 0 0 0 0 -0 0 0 0 0 0 0
0 0 0 0 0 0 0 0 -0 -0 0 0 0 0 0 0 0 0 0 0 0 0 0 0 0 0 0 0 0 0 0 0 0 0 0 0 0 0 0 0 0 0 0 0 0 0 0
0 0 0 0 0 0 0 0 -0 -0 -0 -0 0 0 0 0 0 0 0 0 0 0 0 0 0 0 0 0 0 0 0 0 0 0 0 0 0 0 0 0 0 0 0 0 0 0 0
0 0 0 0 0 0 0 0 -0 -0 -0 -0 0 0 0 0 0 0 0 0 0 0 0 0 0 0 0 0 0 0 0 0 0 0 0 0 0 0 0 0 0 0 0 0 0 0 0
0 0 0 0 0 0 0 0 -0 -0 0 -0 0 0 0 0 0 0 0 0 0 0 0 0 0 0 0 0 0 0 0 0 0 0 0 0 0 0 0 0 0 0 0 0 0 0 0
0 0 0 0 0 0 0 -0 -0 -0 0 0 0 0 0 0 0 0 0 0 0 0 0 0 0 0 0 0 0 0 0 0 0 0 0 0 0 0 0 0 0 0 0 0 0 0 0
0 0 0 0 0 0 -0 -0 -0 -0 0 0 0 0 0 0 0 0 0 0 0 0 0 0 0 0 0 0 0 0 0 0 0 0 0 0 0 0 0 0 0 0 0 0 0 0 0
0 0 0 0 0 0 -0 -0 -0 -0 -0 0 0 0 0 0 0 0 0 0 0 0 0 0 0 0 0 0 0 0 0 0 0 0 0 0 0 0 0 0 0 0 0 0 0 0 0
0 0 0 0 0 0 -0 -0 -0 0 0 0 0 0 0 0 0 0 0 0 0 0 0 0 0 0 0 0 0 0 0 0 0 0 0 0 0 0 0 0 0 0 0 0 0 0 0
0 0 0 -0 0 0 -0 -0 -0 -0 -0 0 0 0 0 0 0 0 0 0 0 0 0 0 0 0 0 0 0 0 0 0 0 0 0 0 0 0 0 0 0 0 0 0 0 0 0
0 0 0 0 0 0 -0 -0 -0 -0 -0 0 -0 0 0 0 0 0 0 0 0 0 0 0 0 0 0 0 0 0 0 0 0 0 0 0 0 0 0 0 0 0 0 0 0 0 0
0 0 0 0 -0 0 0 -0 -0 -0 -0 0 -0 0 -0 -0 -0 0 0 0 0 0 0 -0 -0 -0 -0 0 0 0 0 0 0 0 0 0 0 0 0 0 0 0 -0 0 0 0 0
0 0 0 0 0 0 0 -0 -0 -0 -0 0 0 0 -0 -0 0 0 0 -0 -0 0 -0 -0 0 -0 -0 0 0 0 0 0 0 0 0 0 0 0 0 0 0 0 0 0 0 0 -0
0 0 0 0 0 0 0 0 -0 -0 -0 0 0 0 -0 -0 -0 0 0 0 -0 -0 -0 -0 -0 0 0 0 0 0 0 0 0 0 0 0 0 0 0 0 0 0 0 0 0 0 -0
0 0 0 0 0 0 0 0 0 0 0 0 0 0 0 -0 -0 -0 0 0 0 0 0 0 0 0 0 0 0 0 0 0 0 0 0 0 0 0 0 0 0 0 0 0 0 0 -0
0 0 0 0 0 0 0 0 0 0 0 0 0 0 0 0 0 0 0 0 0 0 0 0 0 0 0 0 0 0 0 0 0 0 0 0 0 0 0 0 0 0 0 0 0 0 -0
0 0 0 0 0 0 0 0 0 0 0 0 0 0 0 0 0 0 0 0 0 0 0 0 0 0 0 0 0 0 0 0 0 0 0 0 0 0 0 0 0 0 0 0 0 0 0
0 0 0 0 0 0 0 0 0 0 0 0 0 0 0 0 0 0 0 0 0 0 0 0 0 0 0 0 0 0 0 0 0 0 0 0 0 0 0 0 0 0 0 0 0 0 0
0 0 0 0 0 0 0 0 0 0 0 0 0 0 0 0 0 0 0 0 0 0 0 0 0 0 0 0 0 0 0 0 0 0 0 0 0 0 0 0 0 0 0 0 0 0 0
Wind_Speed_500mb
37 44 42 44 51 53 59 55 56 60 56 53 52 49 49 45 44 44 42 40 43 40 36 40 35 31 34 23 44 17 6 15 50 61 63 46 45 29 20 19 11 9 4 26 24 13 13
41 44 44 51 54 49 54 57 58 62 59 50 46 47 45 42 41 40 39 37 36 35 33 30 29 27 32 18 41 52 29 18 53 66 67 55 33 27 21 11 16 13 26 24 11 16 12
43 41 47 47 51 55 56 58 58 50 54 47 44 46 43 38 38 38 36 38 35 32 29 28 26 27 33 33 23 29 28 28 52 76 71 62 32 30 17 6 17 12 7 5 16 12 10
42 48 49 48 52 53 54 58 57 52 50 49 47 44 41 41 39 37 38 38 35 33 33 28 24 23 19 20 35 20 20 25 50 69 62 59 33 42 9 11 8 13 6 3 6 18 11
46 47 52 52 49 53 58 58 56 56 53 51 48 48 42 40 39 37 38 40 41 50 34 21 17 17 11 17 40 17 17 39 50 50 45 46 39 19 11 12 7 4 8 9 10 16 8
44 46 49 55 49 54 60 59 56 54 54 52 55 47 48 47 40 34 35 34 33 15 10 11 14 10 21 15 42 28 24 41 38 38 37 34 28 10 6 10 14 16 9 6 11 1 4
44 47 52 56 50 57 63 58 57 52 56 51 54 52 43 36 28 27 33 30 7 4 8 9 16 8 14 16 30 34 32 32 26 32 15 26 14 20 32 12 7 12 8 7 5 1 4
45 48 55 52 53 60 61 58 57 58 56 60 50 41 41 40 30 27 22 16 9 5 6 7 7 17 7 30 22 33 32 14 13 10 13 11 11 9 22 18 11 9 10 4 4 3 3
44 49 54 54 57 62 59 57 60 61 58 55 58 57 53 41 31 30 4 8 5 2 4 5 7 11 9 30 18 22 33 5 5 5 7 10 18 21 21 17 16 6 7 4 5 7 5
45 48 52 55 58 59 56 59 60 58 62 57 56 58 51 47 14 13 5 8 10 6 7 11 2 7 20 14 11 31 32 9 4 9 10 8 10 28 21 13 5 4 9 3 5 5 4
46 46 49 54 62 63 59 59 64 61 61 58 48 42 28 18 9 14 6 3 19 2 9 3 1 14 22 6 38 13 26 4 10 8 8 3 14 16 20 12 21 6 9 9 6 7 4
49 45 48 53 56 59 60 60 63 57 61 45 37 37 24 20 18 11 11 17 12 6 7 5 2 6 18 8 9 15 8 1 15 13 17 8 10 5 4 9 4 19 11 11 8 5 3
45 44 48 54 58 58 56 61 60 56 50 42 41 31 20 21 18 20 20 4 6 7 4 5 5 13 17 15 11 8 4 9 8 8 8 9 5 3 10 14 9 8 10 4 7 5 7
42 44 47 55 55 54 54 58 54 47 34 29 36 28 26 27 21 22 6 7 10 3 2 6 16 24 9 9 13 6 11 7 9 8 7 8 1 5 2 6 12 5 10 9 9 2 6
42 42 47 52 54 53 51 54 55 40 24 19 22 25 28 23 10 9 14 7 5 4 4 14 20 14 9 9 8 8 8 6 2 1 9 8 6 2 6 5 7 6 4 7 12 6 5
47 41 45 47 53 53 49 48 44 44 31 24 26 16 24 19 13 10 6 10 10 3 9 11 8 2 6 5 8 7 7 2 7 4 1 5 8 4 6 8 18 6 13 6 6 4 5
44 38 42 46 55 60 51 43 44 40 34 28 22 9 25 29 20 10 6 7 5 17 15 8 5 8 10 8 8 4 7 3 2 5 11 7 6 3 9 2 11 4 3 10 8 5 6
42 39 39 45 55 60 56 44 43 35 33 26 14 6 33 34 10 6 6 8 10 10 9 8 9 11 6 6 7 5 7 5 10 13 8 3 7 7 3 4 4 5 9 8 7 5 2
39 40 36 44 53 56 56 45 40 33 28 29 12 9 24 28 7 7 3 6 4 6 7 5 6 5 4 7 8 5 6 2 18 9 11 9 4 5 2 7 7 5 7 8 10 6 8
35 38 34 41 51 52 54 48 38 32 19 15 8 7 13 13 6 3 8 9 10 6 6 7 8 9 7 7 8 7 4 9 19 14 12 10 5 7 9 7 7 4 7 9 11 5 6
31 35 33 37 45 49 51 49 38 33 17 8 9 4 6 6 6 9 5 5 5 9 9 12 7 5 9 6 5 6 4 5 10 13 7 7 6 6 5 7 6 8 8 14 12 10 12
29 31 35 36 40 48 45 46 41 29 13 13 5 5 9 11 18 10 12 10 7 4 9 7 12 12 13 8 3 11 11 4 6 5 6 5 6 4 7 5 9 8 13 15 18 13 21
23 31 35 34 40 42 42 41 38 31 22 11 7 5 3 7 9 3 4 9 10 2 17 18 9 10 18 10 3 7 2 13 13 12 5 6 8 5 6 8 9 10 16 24 12 12 22
23 28 30 29 37 42 37 36 33 25 20 14 11 7 5 5 4 4 10 6 12 9 8 9 15 8 6 1 16 29 34 26 18 11 6 8 8 4 4 8 2 10 4 11 25 15 27
24 26 29 23 33 38 35 32 30 24 14 7 7 4 5 5 3 9 12 3 7 14 8 8 11 10 12 4 6 6 4 6 8 9 7 6 7 5 1 5 13 5 5 11 12 9 15
25 27 29 22 26 36 38 29 30 23 21 8 6 4 5 7 8 4 5 5 4 3 5 4 12 10 5 5 5 4 6 5 3 4 8 10 11 6 5 4 7 7 4 2 7 5 6
23 24 27 21 23 30 31 29 30 21 24 17 9 12 8 8 10 5 7 4 3 4 4 3 5 5 4 3 3 3 4 10 9 10 9 6 3 11 7 4 13 16 10 6 5 7 4
24 26 27 23 21 30 28 29 27 25 17 23 15 12 11 10 31 20 14 8 4 7 7 9 6 1 3 4 4 4 4 5 4 8 10 13 10 7 6 6 13 10 6 4 6 7 7
29 30 28 23 24 30 33 30 23 27 13 23 20 15 21 18 19 20 33 32 24 7 5 16 3 6 9 4 1 2 2 1 4 4 3 8 11 8 13 11 10 7 9 17 21 25 12
Wind_Direction_500mb
332 333 345 331 332 328 332 333 322 324 322 322 318 319 316 316 311 306 302 298 294 288 285 282 263 273 268 217 216 174 128 204 187 188 189 181 165 171 183 178 151 178 204 217 234 237 275
331 342 332 330 331 332 328 327 331 328 327 326 327 325 321 318 314 312 309 303 295 290 288 282 262 262 277 220 231 231 250 216 193 185 190 190 179 171 168 190 177 204 206 243 251 241 252
338 335 335 335 333 333 329 331 329 331 328 329 317 319 323 321 318 314 312 309 299 299 289 279 270 262 281 230 236 241 231 230 193 185 189 190 168 172 158 129 187 170 116 240 247 216 231
337 337 334 339 334 330 330 331 331 329 325 323 326 326 322 317 314 311 311 308 301 301 290 269 267 257 263 228 226 201 188 187 181 186 195 189 182 186 176 150 92 127 110 226 276 171 215
335 336 336 334 334 336 333 333 332 330 331 329 323 323 315 319 317 311 311 308 309 304 271 263 246 218 249 221 208 190 177 176 169 186 194 193 188 184 173 130 88 176 180 190 307 192 157
335 336 338 329 335 335 334 333 333 330 330 331 324 326 322 314 310 315 311 316 320 324 248 201 221 171 244 210 193 209 157 170 168 171 171 177 186 147 136 185 194 173 186 196 205 282 147
337 341 331 335 336 333 335 334 336 333 329 328 328 321 325 324 307 317 312 335 341 66 175 207 226 240 139 182 178 200 168 159 166 168 184 166 178 195 186 159 162 144 151 166 222 63 308
341 338 338 342 337 337 335 338 336 333 334 327 328 325 312 315 313 306 307 324 287 281 320 296 308 255 146 143 175 182 172 151 160 162 160 127 197 173 173 148 112 110 124 192 303 350 337
339 340 342 344 341 341 338 339 338 339 335 329 322 317 312 303 290 294 268 355 211 175 237 35 248 292 128 152 154 153 170 150 109 97 170 122 143 153 151 113 158 79 133 172 218 350 46
343 343 343 346 348 344 344 343 342 341 335 335 331 325 317 306 271 246 253 336 178 156 80 352 243 183 155 154 72 152 167 123 113 128 91 49 137 140 139 151 94 84 219 134 82 71 251
343 346 346 349 344 346 347 344 342 344 342 342 343 344 357 29 299 203 192 188 165 216 79 192 168 132 149 350 135 156 166 164 125 128 103 280 133 129 148 166 166 185 117 116 96 94 29
345 346 348 348 346 344 346 346 347 349 346 346 343 1 25 54 69 97 111 133 137 33 89 167 108 131 120 159 56 115 120 100 78 67 65 76 81 60 111 66 147 141 86 56 53 85 23
351 348 348 348 349 348 350 351 351 356 3 8 8 14 30 65 97 116 116 71 29 66 304 112 144 135 120 112 98 87 145 49 102 99 61 39 13 38 102 82 44 81 84 334 359 21 218
353 351 348 345 352 352 353 357 359 4 9 26 17 21 58 73 100 126 48 56 52 301 268 217 117 104 74 96 93 129 116 69 47 86 101 128 205 170 104 127 160 84 144 162 193 138 276
354 352 348 349 355 353 354 4 6 8 358 6 20 35 43 46 69 184 343 53 15 336 251 131 83 78 81 49 100 79 30 92 207 89 117 120 30 40 63 116 119 186 69 183 107 28 43
356 354 344 352 356 356 355 356 5 9 355 349 344 344 23 20 358 308 18 42 23 48 112 52 79 62 128 60 109 94 156 184 123 62 112 175 87 10 117 92 39 126 154 77 5 104 273
354 354 345 352 356 360 358 354 347 3 3 349 349 347 4 340 331 28 59 15 338 20 38 88 143 98 97 119 103 119 154 88 198 107 61 109 90 358 105 227 161 113 77 56 105 93 165
352 352 346 349 357 359 359 359 350 355 357 335 359 21 359 347 63 48 358 342 330 347 1 80 83 75 101 129 97 101 156 102 169 140 112 77 109 145 100 240 147 137 162 131 120 208 39
350 349 348 347 354 356 358 2 351 356 6 4 357 331 8 18 43 9 328 280 266 335 351 55 108 116 144 112 106 99 128 99 167 143 158 172 53 72 356 360 9 178 181 121 107 95 209
345 344 350 345 349 354 357 1 354 352 16 9 13 11 357 32 37 338 352 338 334 358 328 56 94 74 100 70 30 132 104 18 163 169 129 96 100 148 183 197 138 152 175 162 126 131 203
335 335 344 344 344 351 355 358 0 348 12 28 44 34 350 338 335 329 288 324 34 14 354 33 51 113 128 107 87 96 102 109 45 125 78 98 96 347 268 226 189 201 189 169 182 179 180
329 336 341 340 341 343 352 357 359 360 345 40 65 28 346 292 317 358 345 2 35 7 7 12 89 58 70 110 152 181 136 147 162 47 96 15 117 40 306 351 216 248 226 199 212 226 255
326 338 335 332 337 342 347 354 358 3 3 46 31 21 350 309 336 356 321 317 343 51 44 64 74 77 44 344 213 155 86 121 141 136 130 101 131 56 292 344 326 297 225 202 182 200 215
317 332 329 327 330 339 341 350 355 3 16 27 6 354 314 284 30 313 320 39 14 356 118 14 63 90 152 24 80 88 81 84 85 59 117 116 101 109 292 353 341 243 178 178 200 228 219
302 319 326 318 318 328 338 343 349 354 356 0 346 1 330 279 262 313 345 354 59 60 66 81 60 100 138 68 64 84 31 47 42 46 68 111 120 110 312 281 287 300 166 147 178 269 206
292 311 313 304 311 315 334 337 339 350 343 333 247 313 252 303 247 293 297 293 173 99 22 87 100 96 100 75 69 146 187 151 193 105 28 77 104 119 198 269 247 251 216 80 138 319 173
285 303 307 289 303 308 325 318 328 336 341 332 278 255 262 260 260 259 231 247 221 126 135 169 185 108 109 92 133 197 177 152 166 180 161 126 160 210 238 251 278 251 274 134 85 237 217
283 300 298 286 296 305 314 305 316 330 328 324 303 277 255 256 258 263 254 259 244 205 155 170 91 358 90 173 171 181 183 215 161 177 168 183 163 182 177 217 265 197 92 175 220 308 290
290 293 283 296 299 298 305 307 291 305 297 300 304 273 275 266 262 251 251 246 236 211 189 173 182 159 167 121 70 119 174 201 208 226 236 213 187 184 181 214 248 208 260 289 293 301 297
Wind_Speed_850mb
37 44 42 44 51 53 59 55 56 60 56 53 52 49 49 45 44 44 42 40 43 40 36 40 35 31 34 23 44 17 6 15 50 61 63 46 45 29 20 19 11 9 4 26 24 13 13
41 44 44 51 54 49 54 57 58 62 59 50 46 47 45 42 41 40 39 37 36 35 33 30 29 27 32 18 41 52 29 18 53 66 67 55 33 27 21 11 16 13 26 24 11 16 12
43 41 47 47 51 55 56 58 58 50 54 47 44 46 43 38 38 38 36 38 35 32 29 28 26 27 33 33 23 29 28 28 52 76 71 62 32 30 17 6 17 12 7 5 16 12 10
42 48 49 48 52 53 54 58 57 52 50 49 47 44 41 41 39 37 38 38 35 33 33 28 24 23 19 20 35 20 20 25 50 69 62 59 33 42 9 11 8 13 6 3 6 18 11
46 47 52 52 49 53 58 58 56 56 53 51 48 48 42 40 39 37 38 40 41 50 34 21 17 17 11 17 40 17 17 39 50 50 45 46 39 19 11 12 7 4 8 9 10 16 8
44 46 49 55 49 54 60 59 56 54 54 52 55 47 48 47 40 34 35 34 33 15 10 11 14 10 21 15 42 28 24 41 38 38 37 34 28 10 6 10 14 16 9 6 11 1 4
44 47 52 56 50 57 63 58 57 52 56 51 54 52 43 36 28 27 33 30 7 4 8 9 16 8 14 16 30 34 32 32 26 32 15 26 14 20 32 12 7 12 8 7 5 1 4
45 48 55 52 53 60 61 58 57 58 56 60 50 41 41 40 30 27 22 16 9 5 6 7 7 17 7 30 22 33 32 14 13 10 13 11 11 9 22 18 11 9 10 4 4 3 3
44 49 54 54 57 62 59 57 60 61 58 55 58 57 53 41 31 30 4 8 5 2 4 5 7 11 9 30 18 22 33 5 5 5 7 10 18 21 21 17 16 6 7 4 5 7 5
45 48 52 55 58 59 56 59 60 58 62 57 56 58 51 47 14 13 5 8 10 6 7 11 2 7 20 14 11 31 32 9 4 9 10 8 10 28 21 13 5 4 9 3 5 5 4
46 46 49 54 62 63 59 59 64 61 61 58 48 42 28 18 9 14 6 3 19 2 9 3 1 14 22 6 38 13 26 4 10 8 8 3 14 16 20 12 21 6 9 9 6 7 4
49 45 48 53 56 59 60 60 63 57 61 45 37 37 24 20 18 11 11 17 12 6 7 5 2 6 18 8 9 15 8 1 15 13 17 8 10 5 4 9 4 19 11 11 8 5 3
45 44 48 54 58 58 56 61 60 56 50 42 41 31 20 21 18 20 20 4 6 7 4 5 5 13 17 15 11 8 4 9 8 8 8 9 5 3 10 14 9 8 10 4 7 5 7
42 44 47 55 55 54 54 58 54 47 34 29 36 28 26 27 21 22 6 7 10 3 2 6 16 24 9 9 13 6 11 7 9 8 7 8 1 5 2 6 12 5 10 9 9 2 6
42 42 47 52 54 53 51 54 55 40 24 19 22 25 28 23 10 9 14 7 5 4 4 14 20 14 9 9 8 8 8 6 2 1 9 8 6 2 6 5 7 6 4 7 12 6 5
47 41 45 47 53 53 49 48 44 44 31 24 26 16 24 19 13 10 6 10 10 3 9 11 8 2 6 5 8 7 7 2 7 4 1 5 8 4 6 8 18 6 13 6 6 4 5
44 38 42 46 55 60 51 43 44 40 34 28 22 9 25 29 20 10 6 7 5 17 15 8 5 8 10 8 8 4 7 3 2 5 11 7 6 3 9 2 11 4 3 10 8 5 6
42 39 39 45 55 60 56 44 43 35 33 26 14 6 33 34 10 6 6 8 10 10 9 8 9 11 6 6 7 5 7 5 10 13 8 3 7 7 3 4 4 5 9 8 7 5 2
39 40 36 44 53 56 56 45 40 33 28 29 12 9 24 28 7 7 3 6 4 6 7 5 6 5 4 7 8 5 6 2 18 9 11 9 4 5 2 7 7 5 7 8 10 6 8
35 38 34 41 51 52 54 48 38 32 19 15 8 7 13 13 6 3 8 9 10 6 6 7 8 9 7 7 8 7 4 9 19 14 12 10 5 7 9 7 7 4 7 9 11 5 6
31 35 33 37 45 49 51 49 38 33 17 8 9 4 6 6 6 9 5 5 5 9 9 12 7 5 9 6 5 6 4 5 10 13 7 7 6 6 5 7 6 8 8 14 12 10 12
29 31 35 36 40 48 45 46 41 29 13 13 5 5 9 11 18 10 12 10 7 4 9 7 12 12 13 8 3 11 11 4 6 5 6 5 6 4 7 5 9 8 13 15 18 13 21
23 31 35 34 40 42 42 41 38 31 22 11 7 5 3 7 9 3 4 9 10 2 17 18 9 10 18 10 3 7 2 13 13 12 5 6 8 5 6 8 9 10 16 24 12 12 22
23 28 30 29 37 42 37 36 33 25 20 14 11 7 5 5 4 4 10 6 12 9 8 9 15 8 6 1 16 29 34 26 18 11 6 8 8 4 4 8 2 10 4 11 25 15 27
24 26 29 23 33 38 35 32 30 24 14 7 7 4 5 5 3 9 12 3 7 14 8 8 11 10 12 4 6 6 4 6 8 9 7 6 7 5 1 5 13 5 5 11 12 9 15
25 27 29 22 26 36 38 29 30 23 21 8 6 4 5 7 8 4 5 5 4 3 5 4 12 10 5 5 5 4 6 5 3 4 8 10 11 6 5 4 7 7 4 2 7 5 6
23 24 27 21 23 30 31 29 30 21 24 17 9 12 8 8 10 5 7 4 3 4 4 3 5 5 4 3 3 3 4 10 9 10 9 6 3 11 7 4 13 16 10 6 5 7 4
24 26 27 23 21 30 28 29 27 25 17 23 15 12 11 10 31 20 14 8 4 7 7 9 6 1 3 4 4 4 4 5 4 8 10 13 10 7 6 6 13 10 6 4 6 7 7
29 30 28 23 24 30 33 30 23 27 13 23 20 15 21 18 19 20 33 32 24 7 5 16 3 6 9 4 1 2 2 1 4 4 3 8 11 8 13 11 10 7 9 17 21 25 12
Wind_Direction_850mb
332 333 345 331 332 328 332 333 322 324 322 322 318 319 316 316 311 306 302 298 294 288 285 282 263 273 268 217 216 174 128 204 187 188 189 181 165 171 183 178 151 178 204 217 234 237 275
331 342 332 330 331 332 328 327 331 328 327 326 327 325 321 318 314 312 309 303 295 290 288 282 262 262 277 220 231 231 250 216 193 185 190 190 179 171 168 190 177 204 206 243 251 241 252
338 335 335 335 333 333 329 331 329 331 328 329 317 319 323 321 318 314 312 309 299 299 289 279 270 262 281 230 236 241 231 230 193 185 189 190 168 172 158 129 187 170 116 240 247 216 231
337 337 334 339 334 330 330 331 331 329 325 323 326 326 322 317 314 311 311 308 301 301 290 269 267 257 263 228 226 201 188 187 181 186 195 189 182 186 176 150 92 127 110 226 276 171 215
335 336 336 334 334 336 333 333 332 330 331 329 323 323 315 319 317 311 311 308 309 304 271 263 246 218 249 221 208 190 177 176 169 186 194 193 188 184 173 130 88 176 180 190 307 192 157
335 336 338 329 335 335 334 333 333 330 330 331 324 326 322 314 310 315 311 316 320 324 248 201 221 171 244 210 193 209 157 170 168 171 171 177 186 147 136 185 194 173 186 196 205 282 147
337 341 331 335 336 333 335 334 336 333 329 328 328 321 325 324 307 317 312 335 341 66 175 207 226 240 139 182 178 200 168 159 166 168 184 166 178 195 186 159 162 144 151 166 222 63 308
341 338 338 342 337 337 335 338 336 333 334 327 328 325 312 315 313 306 307 324 287 281 320 296 308 255 146 143 175 182 172 151 160 162 160 127 197 173 173 148 112 110 124 192 303 350 337
339 340 342 344 341 341 338 339 338 339 335 329 322 317 312 303 290 294 268 355 211 175 237 35 248 292 128 152 154 153 170 150 109 97 170 122 143 153 151 113 158 79 133 172 218 350 46
343 343 343 346 348 344 344 343 342 341 335 335 331 325 317 306 271 246 253 336 178 156 80 352 243 183 155 154 72 152 167 123 113 128 91 49 137 140 139 151 94 84 219 134 82 71 251
343 346 346 349 344 346 347 344 342 344 342 342 343 344 357 29 299 203 192 188 165 216 79 192 168 132 149 350 135 156 166 164 125 128 103 280 133 129 148 166 166 185 117 116 96 94 29
345 346 348 348 346 344 346 346 347 349 346 346 343 1 25 54 69 97 111 133 137 33 89 167 108 131 120 159 56 115 120 100 78 67 65 76 81 60 111 66 147 141 86 56 53 85 23
351 348 348 348 349 348 350 351 351 356 3 8 8 14 30 65 97 116 116 71 29 66 304 112 144 135 120 112 98 87 145 49 102 99 61 39 13 38 102 82 44 81 84 334 359 21 218
353 351 348 345 352 352 353 357 359 4 9 26 17 21 58 73 100 126 48 56 52 301 268 217 117 104 74 96 93 129 116 69 47 86 101 128 205 170 104 127 160 84 144 162 193 138 276
354 352 348 349 355 353 354 4 6 8 358 6 20 35 43 46 69 184 343 53 15 336 251 131 83 78 81 49 100 79 30 92 207 89 117 120 30 40 63 116 119 186 69 183 107 28 43
356 354 344 352 356 356 355 356 5 9 355 349 344 344 23 20 358 308 18 42 23 48 112 52 79 62 128 60 109 94 156 184 123 62 112 175 87 10 117 92 39 126 154 77 5 104 273
354 354 345 352 356 360 358 354 347 3 3 349 349 347 4 340 331 28 59 15 338 20 38 88 143 98 97 119 103 119 154 88 198 107 61 109 90 358 105 227 161 113 77 56 105 93 165
352 352 346 349 357 359 359 359 350 355 357 335 359 21 359 347 63 48 358 342 330 347 1 80 83 75 101 129 97 101 156 102 169 140 112 77 109 145 100 240 147 137 162 131 120 208 39
350 349 348 347 354 356 358 2 351 356 6 4 357 331 8 18 43 9 328 280 266 335 351 55 108 116 144 112 106 99 128 99 167 143 158 172 53 72 356 360 9 178 181 121 107 95 209
345 344 350 345 349 354 357 1 354 352 16 9 13 11 357 32 37 338 352 338 334 358 328 56 94 74 100 70 30 132 104 18 163 169 129 96 100 148 183 197 138 152 175 162 126 131 203
335 335 344 344 344 351 355 358 0 348 12 28 44 34 350 338 335 329 288 324 34 14 354 33 51 113 128 107 87 96 102 109 45 125 78 98 96 347 268 226 189 201 189 169 182 179 180
329 336 341 340 341 343 352 357 359 360 345 40 65 28 346 292 317 358 345 2 35 7 7 12 89 58 70 110 152 181 136 147 162 47 96 15 117 40 306 351 216 248 226 199 212 226 255
326 338 335 332 337 342 347 354 358 3 3 46 31 21 350 309 336 356 321 317 343 51 44 64 74 77 44 344 213 155 86 121 141 136 130 101 131 56 292 344 326 297 225 202 182 200 215
317 332 329 327 330 339 341 350 355 3 16 27 6 354 314 284 30 313 320 39 14 356 118 14 63 90 152 24 80 88 81 84 85 59 117 116 101 109 292 353 341 243 178 178 200 228 219
302 319 326 318 318 328 338 343 349 354 356 0 346 1 330 279 262 313 345 354 59 60 66 81 60 100 138 68 64 84 31 47 42 46 68 111 120 110 312 281 287 300 166 147 178 269 206
292 311 313 304 311 315 334 337 339 350 343 333 247 313 252 303 247 293 297 293 173 99 22 87 100 96 100 75 69 146 187 151 193 105 28 77 104 119 198 269 247 251 216 80 138 319 173
285 303 307 289 303 308 325 318 328 336 341 332 278 255 262 260 260 259 231 247 221 126 135 169 185 108 109 92 133 197 177 152 166 180 161 126 160 210 238 251 278 251 274 134 85 237 217
283 300 298 286 296 305 314 305 316 330 328 324 303 277 255 256 258 263 254 259 244 205 155 170 91 358 90 173 171 181 183 215 161 177 168 183 163 182 177 217 265 197 92 175 220 308 290
290 293 283 296 299 298 305 307 291 305 297 300 304 273 275 266 262 251 251 246 236 211 189 173 182 159 167 121 70 119 174 201 208 226 236 213 187 184 181 214 248 208 260 289 293 301 297